Regional Weather Roundup
Issued by NWS

Home | Current Version | Previous Version | Text Only | Print | Product List | Glossary On
Versions: 1 2 3 4 5 6 7 8 9 10 11 12 13 14 15 16 17 18 19 20 21 22 23 24 25 26 27 28 29 30 31 32 33 34 35 36 37 38 39 40 41 42 43 44 45 46 47 48 49 50
379
ASUS44 KLIX 251805
RWRLA
LOUISIANA WEATHER ROUNDUP
NATIONAL WEATHER SERVICE NEW ORLEANS LA
100 PM CDT SAT OCT 25 2014

NOTE: "FAIR" INDICATES FEW OR NO CLOUDS BELOW 12,000 FEET WITH NO
      SIGNIFICANT WEATHER AND/OR OBSTRUCTIONS TO VISIBILITY.
      SKY/WX - SKY CONDITION AND SIGNIFICANT WEATHER.
      TMP - AIR TEMPERATURE.    DP   - DEWPOINT TEMPERATURE.
      RH  - RELATIVE HUMIDITY.  PRES - PRESSURE.
      HX  - HEAT INDEX.         WCI  - WIND CHILL INDEX.

*  THESE STATIONS ARE NOT NWS OR FAA STATIONS AND ARE NOT UNDER
   NWS QUALITY CONTROL.

LAZ040-048-061>063-065-066-069-251900-
SOUTHEAST LOUISIANA

CITY           SKY/WX    TMP DP  RH WIND       PRES   REMARKS
N.O. AUDUBON     N/A     80  56  42 MISG        N/A
6HR MIN TEMP:  56; 6HR MAX TEMP:  79;

N.O. INTL ARPT SUNNY     75  49  39 NE6       30.13F
6HR MIN TEMP:  55; 6HR MAX TEMP:  76;

N.O. LAKEFRONT SUNNY     72  54  53 NW7       30.14F
6HR MIN TEMP:  64; 6HR MAX TEMP:  73;

N.O. DOWNTOWN* FAIR      77  50  38 CALM      30.14F
6HR MIN TEMP:  63; 6HR MAX TEMP:  79;

SLIDELL        SUNNY     77  53  43 VRB3      30.12F
6HR MIN TEMP:  44; 6HR MAX TEMP:  77;

BATON ROUGE    SUNNY     78  54  43 NW5       30.14F
6HR MIN TEMP:  46; 6HR MAX TEMP:  78;

BOOTHVILLE     SUNNY     73  55  53 VRB7      30.13F
6HR MIN TEMP:  67; 6HR MAX TEMP:  74;

BELLE CHASSE   SUNNY     75  50  41 VRB5      30.13F
6HR MIN TEMP:  49; 6HR MAX TEMP:  76;

BOGALUSA*        N/A     79  53  40 N8        30.14F
6HR MIN TEMP:  44; 6HR MAX TEMP:  79;

NEW ROADS*     FAIR      76  54  45 CALM      30.15F
6HR MIN TEMP:  45; 6HR MAX TEMP:  76;

GONZALES*      FAIR      77  55  47 N3        30.13F
6HR MIN TEMP:  48; 6HR MAX TEMP:  77;

HAMMOND*       SUNNY     81  52  36 CALM      30.14F
HOUMA*         SUNNY     77  54  44 NW7       30.13F
PORT FOURCHON* CLEAR     73  54  49 NE13      30.16F

$$

LAZ041-044-053-054-251900-
SOUTHWEST LOUISIANA

CITY           SKY/WX    TMP DP  RH WIND       PRES   REMARKS
LAKE CHARLES   SUNNY     78  51  38 E7        30.15F
6HR MIN TEMP:  49; 6HR MAX TEMP:  78;

LAFAYETTE      SUNNY     79  52  38 VRB3      30.15F
6HR MIN TEMP:  49; 6HR MAX TEMP:  80;

PATTERSON      SUNNY     77  54  44 N6        30.17F
6HR MIN TEMP:  52; 6HR MAX TEMP:  77;

SALT POINT       N/A     74  59  59 VRB3      30.13F
6HR MIN TEMP:  55; 6HR MAX TEMP:  77;

NEW IBERIA     SUNNY     80  51  36 VRB3      30.15F
6HR MIN TEMP:  48; 6HR MAX TEMP:  80;

CHENAULT AIRPK NOT AVBL

$$

LAZ027-028-251900-
CENTRAL LOUISIANA

CITY           SKY/WX    TMP DP  RH WIND       PRES   REMARKS
FORT POLK      SUNNY     78  53  40 VRB5      30.15F
6HR MIN TEMP:  49; 6HR MAX TEMP:  79;

ALEXANDRIA INT SUNNY     78  54  43 CALM      30.13F
6HR MIN TEMP:  46; 6HR MAX TEMP:  78;

ALEXANDRIA     SUNNY     77  56  48 CALM      30.15F
6HR MIN TEMP:  43; 6HR MAX TEMP:  77;


$$

LAZ001-002-251900-
NORTHWEST LOUISIANA

CITY           SKY/WX    TMP DP  RH WIND       PRES   REMARKS
SHREVEPORT     SUNNY     80  60  50 SW7       30.13F
6HR MIN TEMP:  53; 6HR MAX TEMP:  81;

BARKSDALE AFB  SUNNY     81  59  46 VRB2      30.14F
6HR MIN TEMP:  51; 6HR MAX TEMP:  81;

DTN SHREVEPORT SUNNY     80  59  48 SW6       30.14F
6HR MIN TEMP:  53; 6HR MAX TEMP:  80;


$$

LAZ014-016-251900-
NORTHEAST LOUISIANA

CITY           SKY/WX    TMP DP  RH WIND       PRES   REMARKS
MONROE         SUNNY     78  57  48 W6        30.15F
6HR MIN TEMP:  48; 6HR MAX TEMP:  78;

TALLULAH       SUNNY     78  57  48 VRB3      30.14F
6HR MIN TEMP:  43; 6HR MAX TEMP:  78;


$$




USA.gov is the U.S. government's official web portal to all federal, state and local government web resources and services.